Probability
11 21 33 35 29 22 17 17 22 26 25 23 23 21 19 16 12 9 9 11 11 8 5 3 5 5 5 3 4 5 5 4 2 1 0 0 0 1 1 1 1 2 5
13 23 33 35 31 25 20 18 22 26 25 24 23 21 19 17 16 13 12 11 11 8 5 3 3 5 5 4 5 5 5 5 4 2 1 0 0 1 1 2 2 4 7
16 25 34 37 35 30 26 24 26 28 26 23 22 20 19 19 19 16 14 11 9 8 7 5 3 4 5 5 5 6 6 5 4 3 1 0 1 3 4 4 5 4 5
18 26 34 38 37 34 31 29 30 32 30 25 23 23 22 20 19 17 14 11 9 9 10 8 5 4 4 5 6 6 5 4 3 2 1 1 3 5 6 7 7 5 3
18 27 35 39 38 35 33 30 31 35 36 31 29 30 26 22 21 18 15 12 10 10 10 8 6 4 4 5 6 6 5 3 2 2 2 3 5 6 7 8 9 7 4
19 25 35 41 40 37 34 31 32 35 37 37 36 35 30 24 22 20 16 14 12 10 9 7 6 6 7 7 6 6 5 3 3 3 4 6 7 8 8 8 9 8 6
19 24 33 41 41 38 36 34 34 35 36 37 38 37 31 25 21 19 16 12 10 8 7 7 7 9 9 8 7 5 4 3 3 4 5 6 9 10 9 9 10 9 8
18 22 30 37 38 36 35 35 35 34 35 36 37 36 30 24 19 17 14 9 6 6 6 7 8 9 8 8 6 4 3 3 2 3 4 6 10 10 9 9 10 10 10
18 21 26 31 33 33 33 33 33 33 34 36 36 33 28 22 19 16 12 8 5 4 4 6 7 7 6 6 6 5 3 2 1 1 3 7 10 9 8 9 10 10 11
24 24 25 27 28 28 29 30 30 31 33 34 33 28 23 20 18 14 10 8 5 4 3 4 5 6 5 5 5 5 3 2 1 1 4 9 12 10 8 9 8 8 10
29 27 25 25 25 25 26 27 28 29 30 31 29 24 20 19 16 11 8 6 4 1 1 3 4 5 4 3 3 4 3 1 0 1 5 10 12 10 7 6 5 6 7
30 28 25 26 26 27 26 27 28 28 28 27 25 23 22 20 16 11 9 8 5 2 1 2 3 3 2 2 3 5 4 2 1 2 5 9 11 8 5 3 3 4 4
28 27 27 28 29 30 29 29 29 29 29 27 24 23 23 22 18 14 13 12 9 6 4 3 3 2 1 2 5 6 5 4 3 3 5 10 10 7 4 3 3 3 3
25 25 27 29 31 32 32 31 31 30 30 30 28 25 24 23 20 17 15 14 12 10 8 6 6 4 2 3 4 6 7 7 6 5 8 11 11 7 4 3 3 3 2
23 25 27 30 33 35 34 32 31 30 30 30 30 27 23 22 21 18 16 15 13 12 11 11 8 5 4 4 4 6 9 9 7 7 8 10 9 6 3 2 3 4 4
22 23 26 29 35 37 33 29 28 27 28 29 29 25 20 18 19 19 18 17 15 14 13 13 10 7 8 8 8 9 9 9 8 8 7 7 7 5 3 2 3 4 4
23 23 24 27 33 36 31 27 26 25 26 27 27 22 17 15 17 19 18 18 17 15 14 13 12 11 12 13 12 12 11 9 9 9 7 6 5 4 3 2 2 2 2
27 27 26 28 32 35 33 30 27 25 24 24 23 20 17 16 18 19 18 18 18 15 12 13 14 15 16 15 13 12 12 11 9 10 9 7 5 4 3 3 2 1 0
28 30 31 31 32 34 34 32 30 26 22 21 20 19 19 19 20 20 20 20 20 17 14 14 16 18 19 16 12 11 11 10 10 10 10 8 7 5 4 3 3 1 1
27 30 33 32 32 33 33 31 30 26 22 20 20 19 20 20 19 20 21 21 22 20 18 18 20 22 23 18 12 9 10 10 10 11 10 9 8 6 4 4 3 3 2
29 30 32 33 33 32 30 29 27 24 20 18 18 18 18 19 19 19 20 21 22 22 23 23 24 24 24 20 14 11 9 10 10 10 9 8 7 6 4 4 4 3 3
30 31 33 34 33 29 26 25 24 21 17 16 16 15 16 17 18 19 20 21 21 22 24 26 25 23 22 21 18 15 12 10 10 9 9 9 8 7 5 4 3 3 3
31 31 33 34 31 26 22 20 20 19 17 16 15 15 15 17 18 19 20 20 21 21 22 24 24 22 21 20 19 17 15 11 9 9 10 9 8 9 7 5 3 3 3
32 32 31 29 26 22 19 17 18 19 17 16 15 15 16 17 17 17 17 18 18 19 19 20 21 22 22 21 19 18 16 13 9 9 9 8 8 9 8 6 4 3 3
28 28 25 20 19 18 16 15 16 16 16 16 16 16 17 17 16 14 13 14 16 17 17 17 19 22 22 21 19 18 17 15 11 8 8 8 7 7 7 6 5 4 3
23 22 19 15 15 16 15 13 12 12 14 16 16 16 16 17 15 12 11 13 16 17 16 16 18 21 22 20 18 18 18 16 12 8 7 7 6 6 7 7 6 4 3
Wind_Speed
8 13 16 13 12 12 12 12 13 13 13 13 13 13 13 12 12 12 11 10 10 9 8 8 7 6 6 5 4 4 4 3 3 4 4 4 4 4 4 4 6 7 8
10 14 17 14 13 12 12 12 12 12 12 12 12 12 12 12 11 11 10 10 9 8 8 7 7 6 5 4 4 4 4 4 4 4 4 6 6 5 4 4 5 2 7
11 14 16 13 13 13 12 12 12 12 12 12 12 12 12 11 11 10 10 9 8 8 7 6 6 6 5 4 4 4 4 4 4 4 6 8 8 8 5 4 4 3 4
11 13 14 14 13 13 12 12 12 12 12 12 12 12 12 11 11 10 9 9 8 8 7 6 5 5 5 4 4 4 4 4 4 6 9 6 5 9 6 5 5 5 5
11 12 14 15 13 13 13 12 12 12 12 12 12 12 11 11 10 9 9 9 8 7 7 6 5 4 4 4 3 3 4 4 5 10 7 5 4 7 5 5 6 6 6
12 12 15 14 13 12 12 12 11 11 11 12 11 11 11 10 10 9 9 8 8 7 6 6 5 4 4 3 3 3 4 4 9 9 5 5 5 7 6 6 6 7 7
11 11 14 13 12 12 12 12 11 10 11 11 11 10 10 9 9 8 8 7 7 6 6 6 6 5 4 4 4 4 5 6 9 6 5 6 2 6 5 6 7 7 7
11 11 13 14 12 12 12 12 11 11 10 10 10 10 9 9 8 8 7 7 6 6 5 6 5 5 5 4 4 5 6 8 9 6 5 5 4 4 4 6 6 6 7
10 10 11 13 13 12 10 10 10 10 10 10 9 9 9 9 8 8 7 6 6 5 5 5 5 5 5 5 5 5 6 8 10 6 6 3 6 4 5 5 6 6 6
9 9 10 10 10 11 11 11 9 9 9 10 9 9 9 9 9 9 9 7 6 5 5 5 5 5 5 5 6 6 7 9 10 7 4 3 6 4 6 6 6 6 7
8 8 8 9 9 8 9 10 10 9 9 9 9 10 9 8 8 8 6 6 6 5 6 6 5 6 6 8 8 7 8 7 7 4 3 4 4 5 6 7 6 7 7
9 9 7 8 8 8 6 7 6 7 7 7 6 7 6 5 4 4 7 6 6 6 7 6 6 8 9 6 8 10 6 7 6 4 2 5 4 6 7 7 7 7 8
9 8 7 7 7 6 5 5 4 4 5 6 6 6 4 4 4 4 3 6 6 7 6 6 7 5 5 4 4 5 5 5 4 4 3 5 5 7 7 7 8 8 9
7 7 7 6 6 6 4 4 4 4 4 4 5 6 4 3 3 3 2 3 3 3 3 3 3 4 4 5 5 6 6 5 4 3 2 5 5 7 8 8 9 9 9
6 6 7 7 6 6 5 4 4 3 3 4 4 4 4 4 3 3 2 2 3 2 3 3 3 4 5 5 5 6 6 5 5 5 2 5 5 7 8 8 9 9 9
5 5 6 6 6 6 5 4 3 3 3 3 4 4 5 3 3 3 3 3 3 3 3 3 3 4 4 4 5 5 6 6 5 6 5 5 7 7 7 8 8 8 8
4 4 5 6 6 6 6 5 4 4 4 3 3 3 4 4 4 4 3 3 2 2 3 4 4 4 4 4 5 5 5 6 5 5 5 4 5 8 8 7 7 8 8
3 4 4 4 5 6 5 5 3 3 4 3 3 3 4 5 5 4 3 3 3 3 3 3 4 4 4 4 4 4 4 5 6 5 5 5 4 4 7 7 6 7 8
3 4 4 4 5 5 5 4 4 3 3 3 3 3 4 5 5 4 3 2 4 3 3 4 3 4 4 4 4 4 4 4 4 5 5 6 5 5 4 6 8 8 8
2 3 4 5 5 5 4 4 3 3 3 3 2 3 4 4 5 4 3 3 4 3 3 3 4 4 4 4 4 4 4 4 4 4 5 5 5 6 6 5 6 8 10
1 3 4 4 5 4 4 4 3 3 3 3 3 3 4 4 4 4 3 3 4 3 3 4 4 4 4 3 4 5 5 6 5 5 5 5 5 5 5 6 6 5 6
2 2 3 4 5 5 4 3 2 2 2 2 2 2 3 4 4 4 4 4 3 3 4 4 4 3 3 3 4 5 5 5 6 6 5 5 5 5 6 7 6 6 6
1 2 2 3 4 4 4 3 3 3 3 3 3 3 3 3 3 3 4 4 3 4 3 4 4 5 4 3 4 4 4 4 3 4 6 5 6 5 6 6 7 7 7
1 1 2 2 3 4 4 4 4 3 3 2 2 2 3 3 3 4 4 4 4 4 3 5 4 4 5 4 3 4 5 4 5 4 4 5 7 7 6 6 6 7 7
2 1 1 1 2 3 3 4 4 3 3 2 2 3 3 3 4 4 4 4 4 4 3 4 4 5 5 5 4 4 5 4 6 6 5 4 5 5 5 6 6 6 7
2 1 1 1 1 2 3 3 4 3 3 2 3 3 3 3 3 4 4 3 4 3 4 4 5 6 5 5 5 4 4 4 4 5 6 6 5 4 5 5 6 6 6
Wind_Direction
154 143 145 153 154 153 152 152 150 150 150 150 151 153 153 154 157 156 154 152 151 153 153 153 152 153 157 155 154 154 156 159 160 163 167 171 173 174 182 189 210 191 133
150 144 147 154 155 155 153 151 151 151 150 151 152 153 155 156 157 155 155 154 154 154 156 155 157 158 158 162 165 172 172 171 176 180 187 189 183 184 192 203 245 70 129
145 144 152 155 156 155 153 151 152 153 154 155 156 156 157 158 158 158 158 157 156 153 153 158 160 160 161 168 180 184 181 183 186 189 216 222 178 173 190 204 209 179 174
144 148 154 151 156 154 152 153 155 157 158 159 159 158 158 158 159 160 159 158 156 155 153 154 159 160 161 164 182 190 193 193 199 213 225 221 199 152 184 210 213 204 199
144 148 143 153 156 154 154 155 157 159 158 159 159 158 158 158 159 161 161 160 159 160 160 164 163 165 169 172 178 190 199 208 212 232 238 230 219 140 185 216 219 216 210
149 152 141 152 153 154 154 155 157 160 161 160 159 158 159 159 162 165 166 167 168 168 169 171 172 169 180 179 179 197 217 224 231 230 227 233 222 152 190 220 225 220 215
150 149 142 149 151 154 156 158 159 161 162 161 159 159 160 162 164 166 169 173 175 174 175 176 175 176 187 199 202 207 224 235 250 243 231 232 198 128 194 224 229 222 217
148 149 141 149 155 158 161 162 161 161 161 160 160 161 162 162 167 171 175 178 177 178 179 178 180 186 194 207 216 215 223 248 245 247 239 237 116 146 210 225 229 226 224
151 151 151 157 161 161 161 162 161 161 161 161 162 164 165 165 173 178 184 187 182 183 187 188 192 199 207 213 219 224 233 248 261 245 239 231 124 181 217 222 224 229 227
155 157 157 159 162 169 167 164 163 162 165 165 167 170 171 174 180 187 192 184 190 192 196 199 202 208 215 222 227 232 237 244 248 247 238 160 136 200 223 226 227 229 228
160 164 165 164 167 178 172 161 171 171 172 176 177 175 185 194 187 187 180 172 199 207 209 210 212 217 227 218 220 230 237 243 245 252 246 117 157 216 229 228 232 235 233
171 172 168 170 172 181 176 165 183 184 175 193 183 182 194 192 200 201 152 181 204 216 215 214 221 226 235 229 207 212 234 242 254 239 195 143 199 229 233 232 233 237 234
173 174 175 177 177 182 178 177 187 190 180 192 189 192 197 199 193 204 189 184 200 214 222 199 214 231 238 245 253 236 247 251 247 245 181 164 212 233 236 235 237 239 239
174 177 181 180 179 189 190 185 192 195 187 196 186 200 196 197 205 203 213 213 211 217 228 246 238 235 245 245 246 248 242 244 247 248 183 176 224 240 241 240 241 243 244
175 180 182 185 184 187 191 207 195 206 197 188 194 195 205 200 206 205 211 227 234 230 226 239 248 245 244 242 246 248 251 252 255 257 204 182 220 241 243 243 244 246 247
182 183 180 187 185 187 192 199 193 203 196 209 205 197 209 213 205 209 209 217 231 240 259 257 249 245 246 254 255 252 255 252 243 250 248 200 202 225 241 246 250 250 247
181 182 181 185 185 192 195 201 197 194 199 202 204 200 206 215 205 215 216 222 234 240 239 250 250 249 247 246 246 247 246 249 247 242 249 250 215 201 217 237 246 249 248
195 188 190 191 191 196 199 203 204 202 202 202 197 195 198 209 209 215 221 227 234 237 235 240 249 255 254 256 255 253 249 240 239 239 242 242 246 234 199 204 232 243 245
203 196 194 197 198 196 193 195 196 196 212 205 201 198 196 208 208 216 225 233 236 239 244 248 245 259 258 259 254 246 250 244 234 231 240 246 243 246 247 189 209 231 241
208 201 203 199 194 189 186 192 196 200 212 207 201 203 211 209 210 220 216 224 240 240 244 245 254 256 263 259 261 257 253 247 243 234 242 239 240 241 245 245 223 213 217
213 200 202 204 190 186 186 200 204 209 208 206 205 207 218 220 213 217 236 219 233 235 246 247 253 247 253 256 253 249 242 233 236 239 243 251 239 240 243 242 247 250 217
228 223 212 202 192 194 191 202 217 219 213 202 200 198 222 220 214 213 224 231 225 232 235 245 248 262 261 258 265 262 252 229 216 229 235 236 246 244 242 240 243 246 256
250 243 243 215 193 193 194 196 190 194 206 198 190 196 210 214 207 226 229 237 241 241 236 244 247 248 253 252 264 271 272 271 259 216 229 235 238 244 247 247 239 240 245
302 250 246 221 201 192 194 206 208 218 223 223 217 196 195 201 214 219 227 231 240 245 241 244 244 247 250 251 240 248 269 294 278 260 226 230 236 237 244 251 249 241 241
347 30 135 156 176 187 203 212 222 228 224 212 207 189 206 198 210 219 224 233 240 246 250 256 251 251 245 251 252 246 247 247 253 267 266 255 244 238 238 245 253 254 248
3 37 80 104 174 205 213 219 221 222 220 212 215 206 211 204 206 214 226 231 238 244 240 246 251 247 250 257 258 252 252 255 255 260 268 265 262 256 252 253 252 252 251